EN

Hourly Weather Ali Sabieh

Today, 20 January, Wednesday

Time Temperature Precipitation Wind Pressure Humidity
00:00 +20°C° 0 mm 4 mps 698 mmHg 78%
01:00 +20°C° 0 mm 3 mps 698 mmHg 79%
02:00 +19°C° 0 mm 3 mps 698 mmHg 80%
03:00 +19°C° 0 mm 3 mps 698 mmHg 82%
04:00 +19°C° 0 mm 3 mps 698 mmHg 84%
05:00 +18°C° 0 mm 3 mps 698 mmHg 87%
06:00 +18°C° 0 mm 3 mps 699 mmHg 90%
07:00 +19°C° 0 mm 3 mps 699 mmHg 76%
08:00 +21°C° 0 mm 4 mps 700 mmHg 63%
09:00 +22°C° 0 mm 5 mps 700 mmHg 50%
10:00 +25°C° 0 mm 5 mps 701 mmHg 42%
11:00 +26°C° 0 mm 6 mps 701 mmHg 34%
12:00 +28°C° 0 mm 7 mps 701 mmHg 26%
13:00 +28°C° 0 mm 7 mps 700 mmHg 24%
14:00 +29°C° 0 mm 8 mps 700 mmHg 22%
15:00 +29°C° 0 mm 8 mps 699 mmHg 20%
16:00 +28°C° 0 mm 8 mps 699 mmHg 24%
17:00 +26°C° 0 mm 8 mps 699 mmHg 27%
18:00 +24°C° 0 mm 7 mps 699 mmHg 31%
19:00 +23°C° 0 mm 7 mps 699 mmHg 37%
20:00 +22°C° 0 mm 6 mps 700 mmHg 43%
21:00 +21°C° 0 mm 5 mps 700 mmHg 50%
22:00 +20°C° 0 mm 5 mps 699 mmHg 54%
23:00 +20°C° 0 mm 5 mps 699 mmHg 58%

Tomorrow, 21 January, Thursday

Time Temperature Precipitation Wind Pressure Humidity
00:00 +19°C° 0 mm 4 mps 699 mmHg 62%
01:00 +19°C° 0 mm 4 mps 699 mmHg 66%
02:00 +19°C° 0 mm 3 mps 698 mmHg 70%
03:00 +18°C° 0 mm 3 mps 698 mmHg 73%
04:00 +18°C° 0 mm 2 mps 698 mmHg 76%
05:00 +18°C° 0 mm 2 mps 699 mmHg 78%
06:00 +17°C° 0 mm 2 mps 699 mmHg 80%
07:00 +18°C° 0 mm 2 mps 699 mmHg 74%
08:00 +20°C° 0 mm 2 mps 700 mmHg 67%
09:00 +21°C° 0 mm 2 mps 701 mmHg 61%
10:00 +24°C° 0 mm 3 mps 701 mmHg 51%
11:00 +26°C° 0 mm 3 mps 701 mmHg 42%
12:00 +27°C° 0 mm 4 mps 700 mmHg 32%
13:00 +28°C° 0 mm 4 mps 700 mmHg 30%
14:00 +29°C° 0 mm 5 mps 699 mmHg 29%
15:00 +30°C° 0 mm 5 mps 699 mmHg 27%
16:00 +28°C° 0 mm 5 mps 699 mmHg 31%
17:00 +27°C° 0 mm 5 mps 698 mmHg 34%
18:00 +26°C° 0 mm 5 mps 698 mmHg 38%
19:00 +25°C° 0 mm 5 mps 699 mmHg 45%
20:00 +23°C° 0 mm 4 mps 699 mmHg 52%
21:00 +21°C° 0 mm 4 mps 699 mmHg 58%
22:00 +21°C° 0 mm 4 mps 699 mmHg 64%
23:00 +20°C° 0 mm 4 mps 699 mmHg 69%

Day after tomorrow, 22 January, Friday

Time Temperature Precipitation Wind Pressure Humidity
00:00 +19°C° 0 mm 4 mps 699 mmHg 74%
01:00 +19°C° 0 mm 4 mps 698 mmHg 78%
02:00 +18°C° 0 mm 4 mps 698 mmHg 81%
03:00 +18°C° 0 mm 4 mps 698 mmHg 84%
04:00 +18°C° 0 mm 3 mps 698 mmHg 86%
05:00 +17°C° 0 mm 3 mps 698 mmHg 88%
06:00 +17°C° 0 mm 3 mps 698 mmHg 90%
07:00 +18°C° 0 mm 4 mps 699 mmHg 80%
08:00 +20°C° 0 mm 4 mps 700 mmHg 71%
09:00 +21°C° 0 mm 5 mps 701 mmHg 62%
10:00 +23°C° 0 mm 6 mps 701 mmHg 53%
11:00 +26°C° 0 mm 7 mps 701 mmHg 43%
12:00 +27°C° 0 mm 7 mps 701 mmHg 34%
13:00 +28°C° 0 mm 8 mps 700 mmHg 32%
14:00 +28°C° 0 mm 9 mps 699 mmHg 30%
15:00 +29°C° 0 mm 9 mps 698 mmHg 28%
16:00 +27°C° 0 mm 9 mps 698 mmHg 32%
17:00 +26°C° 0 mm 9 mps 698 mmHg 36%
18:00 +23°C° 0 mm 9 mps 698 mmHg 41%
19:00 +22°C° 0 mm 9 mps 699 mmHg 44%
20:00 +22°C° 0 mm 9 mps 699 mmHg 48%
21:00 +21°C° 0 mm 9 mps 699 mmHg 52%
22:00 +20°C° 0 mm 8 mps 699 mmHg 55%
23:00 +20°C° 0 mm 8 mps 699 mmHg 59%

23 January, Saturday

Time Temperature Precipitation Wind Pressure Humidity
00:00 +18°C° 0 mm 7 mps 698 mmHg 63%
01:00 +18°C° 0 mm 7 mps 698 mmHg 65%
02:00 +19°C° 0 mm 6 mps 698 mmHg 66%
03:00 +17°C° 0 mm 6 mps 697 mmHg 68%
04:00 +17°C° 0 mm 6 mps 698 mmHg 71%
05:00 +17°C° 0 mm 5 mps 698 mmHg 75%
06:00 +16°C° 0 mm 5 mps 698 mmHg 78%
07:00 +19°C° 0 mm 6 mps 699 mmHg 70%
08:00 +20°C° 0 mm 7 mps 700 mmHg 63%
09:00 +22°C° 0 mm 8 mps 701 mmHg 55%
10:00 +23°C° 0 mm 8 mps 701 mmHg 50%
11:00 +26°C° 0 mm 9 mps 700 mmHg 44%
12:00 +27°C° 0 mm 9 mps 700 mmHg 38%
13:00 +27°C° 0 mm 9 mps 700 mmHg 37%
14:00 +28°C° 0 mm 9 mps 699 mmHg 36%
15:00 +28°C° 0 mm 10 mps 698 mmHg 35%
16:00 +27°C° 0 mm 10 mps 698 mmHg 41%
17:00 +24°C° 0 mm 9 mps 698 mmHg 46%
18:00 +23°C° 0 mm 9 mps 698 mmHg 52%
19:00 +22°C° 0 mm 9 mps 698 mmHg 57%
20:00 +21°C° 0 mm 9 mps 699 mmHg 62%
21:00 +19°C° 0 mm 9 mps 699 mmHg 66%
22:00 +20°C° 0 mm 8 mps 699 mmHg 71%
23:00 +18°C° 0 mm 8 mps 699 mmHg 76%

24 January, Sunday

Time Temperature Precipitation Wind Pressure Humidity
00:00 +18°C° 0 mm 7 mps 699 mmHg 81%
01:00 +18°C° 0 mm 7 mps 698 mmHg 83%
02:00 +17°C° 0 mm 7 mps 698 mmHg 84%
03:00 +17°C° 0 mm 6 mps 697 mmHg 86%
04:00 +17°C° 0 mm 6 mps 698 mmHg 87%
05:00 +17°C° 0 mm 6 mps 698 mmHg 87%
06:00 +17°C° 0 mm 6 mps 698 mmHg 87%
07:00 +18°C° 0 mm 7 mps 699 mmHg 80%
08:00 +20°C° 0 mm 8 mps 700 mmHg 72%
09:00 +21°C° 0 mm 8 mps 700 mmHg 64%
10:00 +23°C° 0 mm 8 mps 700 mmHg 56%
11:00 +24°C° 0 mm 8 mps 700 mmHg 48%
12:00 +27°C° 0 mm 8 mps 700 mmHg 40%
13:00 +27°C° 0 mm 9 mps 700 mmHg 38%
14:00 +28°C° 0 mm 9 mps 699 mmHg 36%
15:00 +28°C° 0 mm 9 mps 698 mmHg 35%
16:00 +26°C° 0 mm 9 mps 698 mmHg 40%
17:00 +24°C° 0 mm 9 mps 698 mmHg 45%
18:00 +23°C° 0 mm 9 mps 698 mmHg 50%
19:00 +22°C° 0 mm 9 mps 699 mmHg 56%
20:00 +21°C° 0 mm 8 mps 699 mmHg 63%
21:00 +20°C° 0 mm 8 mps 699 mmHg 69%
22:00 +20°C° 0 mm 8 mps 699 mmHg 74%
23:00 +18°C° 0 mm 8 mps 699 mmHg 78%

25 January, Monday

Time Temperature Precipitation Wind Pressure Humidity
00:00 +18°C° 0 mm 8 mps 698 mmHg 82%
01:00 +17°C° 0 mm 8 mps 698 mmHg 83%
02:00 +17°C° 0 mm 7 mps 698 mmHg 85%
03:00 +17°C° 0 mm 7 mps 698 mmHg 86%
04:00 +17°C° 0 mm 7 mps 698 mmHg 86%
05:00 +17°C° 0 mm 7 mps 698 mmHg 86%
06:00 +17°C° 0 mm 7 mps 699 mmHg 86%
07:00 +18°C° 0 mm 8 mps 699 mmHg 79%
08:00 +20°C° 0 mm 8 mps 700 mmHg 72%
09:00 +21°C° 0 mm 8 mps 701 mmHg 65%
10:00 +22°C° 0 mm 8 mps 701 mmHg 56%
11:00 +24°C° 0 mm 8 mps 701 mmHg 47%
12:00 +27°C° 0 mm 8 mps 701 mmHg 39%
13:00 +27°C° 0 mm 8 mps 700 mmHg 38%
14:00 +27°C° 0 mm 8 mps 699 mmHg 38%
15:00 +28°C° 0 mm 8 mps 699 mmHg 38%
16:00 +26°C° 0 mm 8 mps 699 mmHg 44%
17:00 +24°C° 0 mm 8 mps 699 mmHg 50%
18:00 +23°C° 0 mm 8 mps 699 mmHg 56%
19:00 +22°C° 0 mm 8 mps 699 mmHg 60%
20:00 +21°C° 0 mm 7 mps 699 mmHg 65%
21:00 +20°C° 0 mm 7 mps 700 mmHg 70%
22:00 +20°C° 0 mm 7 mps 699 mmHg 74%
23:00 +18°C° 0 mm 7 mps 699 mmHg 77%
Show more